DEARI EDWN-EDXQ

Flight info

Callsign DEARI
Flight time 0h 33m
Altitude 9000
Route ISMEF DCT BASUM
Aircraft BT36/L-BDFGLORY/S

Departure

Time 2026-04-23 16:56
Airport Flugplatz Nordhorn-Lingen (EDWN)

Arrival

Time 2026-04-23 17:29
Airport Rotenburg (Wümme) Airfield (EDXQ)
Time Latitude Longitude Altitude Speed Heading
2026-04-23 16:56 52.49143 7.24833 3111 ft 114 kts 37°
2026-04-23 16:56 52.49712 7.25740 3612 ft 112 kts 37°
2026-04-23 16:56 52.50072 7.26321 3932 ft 108 kts 37°
2026-04-23 16:56 52.50620 7.27200 4277 ft 116 kts 37°
2026-04-23 16:57 52.51220 7.28169 4544 ft 125 kts 39°
2026-04-23 16:57 52.51850 7.29197 4811 ft 130 kts 39°
2026-04-23 16:57 52.52733 7.30632 5000 ft 142 kts 39°
2026-04-23 16:57 52.53215 7.31419 5009 ft 148 kts 40°
2026-04-23 16:58 52.53958 7.32630 5011 ft 153 kts 39°
2026-04-23 16:58 52.54587 7.34030 5138 ft 154 kts 67°
2026-04-23 16:58 52.54781 7.35694 5629 ft 142 kts 70°
2026-04-23 16:58 52.55003 7.37207 6116 ft 132 kts 68°
2026-04-23 16:59 52.55231 7.38636 6610 ft 127 kts 66°
2026-04-23 16:59 52.55452 7.40012 7082 ft 123 kts 66°
2026-04-23 16:59 52.55671 7.41351 7552 ft 120 kts 66°
2026-04-23 16:59 52.55888 7.42676 7996 ft 120 kts 66°
2026-04-23 17:00 52.56107 7.44012 8435 ft 122 kts 66°
2026-04-23 17:00 52.56326 7.45363 8888 ft 123 kts 66°
2026-04-23 17:00 52.56548 7.46717 9318 ft 126 kts 66°
2026-04-23 17:00 52.56805 7.48252 9355 ft 150 kts 68°
2026-04-23 17:01 52.57082 7.49972 9358 ft 164 kts 69°
2026-04-23 17:01 52.57380 7.51835 9345 ft 172 kts 69°
2026-04-23 17:01 52.57688 7.53756 9344 ft 175 kts 69°
2026-04-23 17:01 52.58002 7.55701 9342 ft 177 kts 69°
2026-04-23 17:02 52.58318 7.57657 9340 ft 178 kts 69°
2026-04-23 17:02 52.58636 7.59625 9342 ft 178 kts 69°
2026-04-23 17:02 52.58955 7.61600 9335 ft 178 kts 69°
2026-04-23 17:02 52.59272 7.63568 9336 ft 178 kts 69°
2026-04-23 17:03 52.59590 7.65542 9335 ft 179 kts 69°
2026-04-23 17:03 52.59908 7.67519 9335 ft 179 kts 69°
2026-04-23 17:03 52.60217 7.69440 9336 ft 179 kts 69°
2026-04-23 17:03 52.60529 7.71392 9335 ft 179 kts 69°
2026-04-23 17:04 52.60850 7.73397 9334 ft 179 kts 69°
2026-04-23 17:04 52.61166 7.75375 9337 ft 179 kts 69°
2026-04-23 17:04 52.61482 7.77352 9336 ft 179 kts 69°
2026-04-23 17:04 52.61798 7.79327 9337 ft 179 kts 69°
2026-04-23 17:05 52.62113 7.81305 9337 ft 179 kts 69°
2026-04-23 17:05 52.62429 7.83286 9332 ft 179 kts 69°
2026-04-23 17:05 52.62745 7.85271 9332 ft 179 kts 69°
2026-04-23 17:05 52.63060 7.87257 9332 ft 179 kts 69°
2026-04-23 17:06 52.63375 7.89242 9333 ft 179 kts 69°
2026-04-23 17:06 52.63689 7.91226 9333 ft 179 kts 69°
2026-04-23 17:06 52.64003 7.93210 9333 ft 179 kts 69°
2026-04-23 17:06 52.64317 7.95199 9332 ft 179 kts 69°
2026-04-23 17:07 52.64630 7.97182 9336 ft 179 kts 69°
2026-04-23 17:07 52.64939 7.99142 9335 ft 179 kts 69°
2026-04-23 17:07 52.65252 8.01126 9335 ft 179 kts 69°
2026-04-23 17:07 52.65564 8.03112 9335 ft 179 kts 69°
2026-04-23 17:08 52.65882 8.05131 9324 ft 180 kts 69°
2026-04-23 17:08 52.66191 8.07100 9325 ft 180 kts 69°
2026-04-23 17:08 52.66507 8.09117 9323 ft 180 kts 69°
2026-04-23 17:08 52.66815 8.11088 9325 ft 180 kts 69°
2026-04-23 17:09 52.67127 8.13079 9323 ft 180 kts 69°
2026-04-23 17:09 52.67443 8.15105 9325 ft 180 kts 69°
2026-04-23 17:09 52.67754 8.17104 9326 ft 180 kts 69°
2026-04-23 17:09 52.68067 8.19107 9326 ft 180 kts 69°
2026-04-23 17:10 52.68373 8.21074 9325 ft 180 kts 69°
2026-04-23 17:10 52.68684 8.23072 9322 ft 180 kts 69°
2026-04-23 17:10 52.68994 8.25070 9323 ft 180 kts 69°
2026-04-23 17:10 52.69303 8.27066 9321 ft 180 kts 69°
2026-04-23 17:11 52.69612 8.29063 9323 ft 180 kts 69°
2026-04-23 17:11 52.69922 8.31063 9321 ft 180 kts 69°
2026-04-23 17:11 52.70231 8.33062 9322 ft 180 kts 69°
2026-04-23 17:11 52.70538 8.35057 9322 ft 180 kts 69°
2026-04-23 17:12 52.70846 8.37052 9322 ft 180 kts 69°
2026-04-23 17:12 52.71153 8.39049 9328 ft 179 kts 69°
2026-04-23 17:12 52.71459 8.41042 9323 ft 179 kts 69°
2026-04-23 17:12 52.71766 8.43037 9324 ft 180 kts 69°
2026-04-23 17:13 52.72072 8.45039 9321 ft 180 kts 69°
2026-04-23 17:13 52.72379 8.47044 9323 ft 180 kts 69°
2026-04-23 17:13 52.72685 8.49046 9322 ft 180 kts 69°
2026-04-23 17:13 52.72991 8.51049 9321 ft 180 kts 69°
2026-04-23 17:14 52.73297 8.53052 9321 ft 180 kts 69°
2026-04-23 17:14 52.73602 8.55057 9321 ft 180 kts 69°
2026-04-23 17:14 52.73907 8.57062 9333 ft 180 kts 69°
2026-04-23 17:14 52.74212 8.59068 9322 ft 180 kts 69°
2026-04-23 17:15 52.74517 8.61068 9322 ft 180 kts 69°
2026-04-23 17:15 52.74820 8.63069 9322 ft 180 kts 69°
2026-04-23 17:15 52.75122 8.65074 9322 ft 180 kts 69°
2026-04-23 17:15 52.75426 8.67077 9322 ft 180 kts 69°
2026-04-23 17:16 52.75728 8.69077 9319 ft 179 kts 69°
2026-04-23 17:16 52.76030 8.71076 9319 ft 180 kts 69°
2026-04-23 17:16 52.76331 8.73074 9320 ft 180 kts 69°
2026-04-23 17:16 52.76632 8.75078 9320 ft 180 kts 69°
2026-04-23 17:17 52.76934 8.77083 9319 ft 180 kts 69°
2026-04-23 17:17 52.77373 8.78960 9316 ft 172 kts 49°
2026-04-23 17:17 52.77886 8.79933 9317 ft 168 kts 37°
2026-04-23 17:17 52.79031 8.81692 9318 ft 168 kts 38°
2026-04-23 17:18 52.80729 8.84341 9320 ft 168 kts 38°
2026-04-23 17:18 52.81583 8.85668 9320 ft 169 kts 38°
2026-04-23 17:18 52.82435 8.86997 9322 ft 168 kts 38°
2026-04-23 17:19 52.83287 8.88326 9324 ft 168 kts 38°
2026-04-23 17:19 52.84144 8.89660 9208 ft 172 kts 38°
2026-04-23 17:19 52.85027 8.91037 8953 ft 176 kts 38°
2026-04-23 17:19 52.85921 8.92436 8703 ft 178 kts 38°
2026-04-23 17:20 52.86820 8.93842 8451 ft 178 kts 38°
2026-04-23 17:20 52.88616 8.96652 7953 ft 177 kts 38°
2026-04-23 17:21 52.90392 8.99431 7466 ft 176 kts 37°
2026-04-23 17:21 52.91280 9.00823 7233 ft 176 kts 37°
2026-04-23 17:21 52.93047 9.03598 6752 ft 174 kts 37°
2026-04-23 17:22 52.93925 9.04979 6495 ft 174 kts 37°
2026-04-23 17:22 52.95673 9.07728 5983 ft 173 kts 37°
2026-04-23 17:23 52.97409 9.10456 5482 ft 171 kts 37°
2026-04-23 17:23 52.98271 9.11809 5234 ft 171 kts 37°
2026-04-23 17:23 52.99993 9.14526 4724 ft 170 kts 37°
2026-04-23 17:24 53.00849 9.15876 4468 ft 169 kts 37°
2026-04-23 17:24 53.01700 9.17220 4228 ft 169 kts 37°
2026-04-23 17:24 53.03405 9.19914 3723 ft 170 kts 37°
2026-04-23 17:25 53.05036 9.22762 2935 ft 165 kts 40°
2026-04-23 17:25 53.05769 9.24168 2661 ft 156 kts 39°
2026-04-23 17:26 53.07182 9.26957 1966 ft 160 kts 44°
2026-04-23 17:26 53.08561 9.29823 1633 ft 154 kts 41°
2026-04-23 17:27 53.10001 9.32492 1398 ft 159 kts 46°
2026-04-23 17:27 53.10454 9.34147 1290 ft 156 kts 69°
2026-04-23 17:27 53.10749 9.35869 1113 ft 153 kts 66°
2026-04-23 17:27 53.11080 9.37536 957 ft 150 kts 63°
2026-04-23 17:28 53.11544 9.38976 959 ft 132 kts 36°
2026-04-23 17:28 53.12309 9.39452 952 ft 113 kts 348°
2026-04-23 17:28 53.12962 9.38938 857 ft 101 kts 303°
2026-04-23 17:28 53.13051 9.37823 603 ft 93 kts 279°
2026-04-23 17:29 53.13053 9.36867 386 ft 78 kts 267°
2026-04-23 17:29 53.12962 9.35992 216 ft 74 kts 261°
2026-04-23 17:29 53.12823 9.34736 100 ft 33 kts 259°
2026-04-23 17:30 53.12797 9.34513 102 ft 25 kts 259°
2026-04-23 17:30 53.12862 9.34279 100 ft 13 kts 11°
2026-04-23 17:30 53.12938 9.34347 100 ft 14 kts 70°
2026-04-23 17:31 53.12960 9.34522 101 ft 17 kts 79°
2026-04-23 17:31 53.12984 9.34730 101 ft 19 kts 79°
2026-04-23 17:31 53.13010 9.34966 101 ft 22 kts 79°
2026-04-23 17:31 53.13039 9.35229 102 ft 24 kts 78°